C/2014 B1 ( Schwartz )

Japanese version
Home page
Updated on May 22, 2017

---------------------------------------------------------------------

* Profile

Discovery Date January 28, 2014
Magnitude 19.9 mag
Discoverer Michael Schwartz (Tenagra Observatory near Nogales, AZ, U.S.A.)

* Pictures

* Orbital Elements

Epoch 2017 Sept. 4.0 TT = JDT 2458000.5
T 2017 Sept. 10.53583 TT                                MPCW
q   9.5565914            (2000.0)            P               Q
z  -0.0003932      Peri.  345.84180     -0.85029360     -0.50400107
 +/-0.0000008      Node   161.39559     +0.51719085     -0.85353288
e   1.0037572      Incl.   28.37231     +0.09754194     +0.13215350
From 500 observations 2014 Jan. 28-2017 Apr. 30, mean residual 0".4.

* Magnitudes Graph

        m1 = -8.5 + 5 log d + 20.0 log r

---------------------------------------------------------------------

The orbital elements are published on M.P.E.C. 2017-J52.
The magnitudes graphs are made with Comet for Windows.

---------------------------------------------------------------------

Copyright(C) Seiichi Yoshida (comet@aerith.net). All rights reserved.